Location: Wyalusing
(42.9440°N, 91.1410°W)
Time: 08:39:25
(UTC-06:00)

Envisat - Visible Passes

Search period start: 21 January 2018 00:00
Search period end: 31 January 2018 00:00
Orbit: 764 x 766 km, 98.2° (Epoch: 21 January)

Date Brightness Start Highest point End Pass type
(mag) Time Alt. Az. Time Alt. Az. Time Alt. Az.
21 Jan 4.1 18:51:21 27° NE 18:51:21 27° NE 18:54:17 10° N visible
21 Jan 5.2 20:31:32 19° NW 20:31:32 19° NW 20:33:19 10° NNW visible
22 Jan 4.5 18:13:56 16° NE 18:13:56 16° NE 18:16:30 10° NNE visible
22 Jan 4.2 19:54:08 34° NNW 19:54:08 34° NNW 19:57:00 10° NNW visible
23 Jan 3.6 19:16:42 40° NNE 19:16:42 40° NNE 19:20:12 10° N visible
23 Jan 5.7 20:56:53 14° WNW 20:56:53 14° WNW 20:58:07 10° NW visible
24 Jan 4.0 18:39:16 26° NE 18:39:16 26° NE 18:42:57 10° N visible
24 Jan 4.7 20:19:27 29° NW 20:19:27 29° NW 20:22:22 10° NNW visible
25 Jan 4.6 18:01:50 13° ENE 18:02:30 13° ENE 18:04:45 10° NNE visible
25 Jan 3.4 19:42:01 53° NNW 19:42:01 53° NNW 19:45:54 10° NNW visible
26 Jan 3.3 19:04:34 42° ENE 19:04:34 42° ENE 19:08:58 10° N visible
26 Jan 5.3 20:44:46 21° WNW 20:44:46 21° WNW 20:47:23 10° NW visible
27 Jan 4.1 18:27:07 21° ENE 18:27:45 21° ENE 18:31:31 10° NNE visible
27 Jan 3.9 20:07:18 45° WNW 20:07:18 45° WNW 20:11:22 10° NNW visible
28 Jan 4.8 17:50:48 10° ENE 17:51:33 10° ENE 17:52:17 10° NE visible
28 Jan 2.8 19:29:50 74° NE 19:29:50 74° NE 19:34:45 10° N visible
28 Jan 5.8 21:10:01 13° WNW 21:10:01 13° WNW 21:11:38 10° WNW visible
29 Jan 3.5 18:52:22 33° E 18:53:07 35° ENE 18:57:41 10° N visible
29 Jan 4.8 20:32:33 29° W 20:32:33 29° W 20:36:33 10° NW visible
30 Jan 4.4 18:14:54 15° E 18:16:45 17° ENE 18:20:01 10° NNE visible
30 Jan 3.3 19:55:04 63° WSW 19:55:15 64° W 20:00:19 10° NNW visible
